This is the latest recevied weather packets stored in our database for station/object CE4TQY-10. If no packets are shown the sender has not sent any weather packets the latest 10 day(s).
| Time | Temp. | Humidity | Pressure | Rain* | Wind** | Luminosity | Snow |
|---|---|---|---|---|---|---|---|
| 1778012510 | 17.78° C | 51% | 1016 hPa | - | - | - | - |
| 1778011609 | 17.78° C | 51% | 1016 hPa | - | - | - | - |
| 1778009807 | 17.78° C | 50% | 1016 hPa | - | - | - | - |
| 1778008906 | 17.78° C | 50% | 1016.2 hPa | - | - | - | - |
| 1778006204 | 18.89° C | 46% | 1015.8 hPa | - | - | - | - |
| 1778002600 | 19.44° C | 43% | 1015.7 hPa | - | - | - | - |
| 1778001699 | 19.44° C | 42% | 1015.6 hPa | - | - | - | - |
| 1778000798 | 19.44° C | 40% | 1015.6 hPa | - | - | - | - |
| 1777998996 | 18.33° C | 45% | 1015.6 hPa | - | - | - | - |
| 1777997195 | 18.33° C | 46% | 1015.5 hPa | - | - | - | - |
| 1777995393 | 20.56° C | 39% | 1015.7 hPa | - | - | - | - |
| 1777990889 | 15.56° C | 52% | 1015.9 hPa | - | - | - | - |
| 1777988185 | 14.44° C | 53% | 1016.1 hPa | - | - | - | - |
| 1777987284 | 14.44° C | 54% | 1016.1 hPa | - | - | - | - |
| 1777985483 | 13.89° C | 55% | 1016.8 hPa | - | - | - | - |
| 1777984582 | 13.89° C | 54% | 1017.2 hPa | - | - | - | - |
| 1777983681 | 13.33° C | 56% | 1017.2 hPa | - | - | - | - |
| 1777980978 | 13.33° C | 55% | 1017.9 hPa | - | - | - | - |
| 1777980077 | 12.78° C | 58% | 1019.1 hPa | - | - | - | - |
| 1777979176 | 13.33° C | 56% | 1019.1 hPa | - | - | - | - |
| 1777977373 | 13.33° C | 56% | 1018.8 hPa | - | - | - | - |
| 1777976472 | 13.33° C | 57% | 1018.8 hPa | - | - | - | - |
| 1777975571 | 13.33° C | 58% | 1018.2 hPa | - | - | - | - |
| 1777974670 | 12.78° C | 60% | 1018.1 hPa | - | - | - | - |
| 1777973769 | 12.78° C | 60% | 1017.6 hPa | - | - | - | - |
* Rain since midnight (hover to see other rain measurements)
** Current wind speed in m/s (hover to see current wind gust speed)